Regional Weather Roundup
Issued by NWS Shreveport, LA

Home | Current Version | Previous Version | Text Only | Print | Product List | Glossary On
Versions: 1 2 3 4 5 6 7 8 9 10 11 12 13 14 15 16 17 18 19 20 21 22 23 24 25 26 27 28 29 30 31 32 33 34 35 36 37 38 39 40 41 42 43 44 45 46 47 48 49 50
000
ASUS44 KSHV 181110
RWRSHV

WEATHER ROUNDUP FOR THE FOUR STATE AREA
NATIONAL WEATHER SERVICE SHREVEPORT LA
600 AM CDT THU JUL 18 2019

NOTE:  "FAIR" INDICATES FEW OR NO CLOUDS BELOW 12000 FEET
WITH NO SIGNIFICANT WEATHER AND/OR OBSTRUCTIONS TO VISIBILITY.

!LAZ001-LAZ014-TXZ097-181200
SHREVEPORT...MONROE...TEXARKANA RADIOS

CITY           SKY/WX    TMP DP  RH WIND       PRES   REMARKS
SHREVEPORT     MOCLDY    78  76  93 SW8       30.03S
MONROE           N/A     77  76  96 CALM      30.06R
NATCHITOCHES     N/A     74  74  99 CALM      30.06R FOG
TEXARKANA      CLEAR     77  75  93 S9        30.02S
$$

!LAZ001-LAZ014-TXZ097-181200
OTHER LOCATIONS...

CITY           SKY/WX    TMP DP  RH WIND       PRES   REMARKS
DOWNTOWN SHV   MOCLDY    80  76  87 SW7       30.03S
BOSSIER CITY   MOCLDY    78  77  96 SW9       30.03R
RUSTON           N/A     76  75  96 SW6       30.08S
LITTLE ROCK    PTCLDY    76  74  93 SW7       30.01F
EL DORADO        N/A     76  76 100 SW6       30.04R
JACKSON          N/A     75  72  90 CALM      30.08R
NEW ORLEANS      N/A     80  76  87 CALM      30.08R
HOUSTON        PTCLDY    76  74  93 CALM      30.04R
LUFKIN         CLOUDY    74  74 100 SE6       30.05R FOG
TYLER          PTCLDY    78  76  93 S10       30.03S
DAL FT WORTH   CLEAR     79  71  76 S16       29.97R
$$


!TXZ136-TXZ165-181200
TYLER...LUFKIN RADIOS

CITY           SKY/WX    TMP DP  RH WIND       PRES   REMARKS
TYLER          PTCLDY    78  76  93 S10       30.03S
GILMER         MOSUNNY   76  74  93 S6        30.03S
LONGVIEW       CLOUDY    77  77 100 S5        30.03R
LUFKIN         CLOUDY    74  74 100 SE6       30.05R FOG
$$

!TXZ136-TXZ165-181200
OTHER LOCATIONS...

CITY           SKY/WX    TMP DP  RH WIND       PRES   REMARKS
NACOGDOCHES    CLOUDY    76  76 100 SE5       30.05S FOG
BEAUMONT         N/A     78  75  90 MISG      30.03F
HOUSTON        PTCLDY    76  74  93 CALM      30.04R
COLLEGE STN    CLEAR     77  76  96 S7        30.03S
AUSTIN         MOCLDY    78  76  93 S8        30.03R
DAL FT WORTH   CLEAR     79  71  76 S16       29.97R
TEXARKANA      CLEAR     77  75  93 S9        30.02S
SHREVEPORT     MOCLDY    78  76  93 SW8       30.03S
FORT POLK      MOCLDY    75  73  94 SE5       30.05S FOG
LAKE CHARLES     N/A     78  76  93 CALM      30.05S
$$



USA.gov is the U.S. government's official web portal to all federal, state and local government web resources and services.